User: anonymous   Login
Location: Unspecified
(0.0000°N, 0.0000°E)
Time: 08:30:49
(UTC+00:00)
Language:

METEOR M2 - Orbit

View from above orbital plane
View from above orbital plane
View from above satellite
View from above satellite

Ground track
Ground track

The orbit data is extracted from the following two-line orbital elements,

1 40069U 14037A   19287.82965077 -.00000034  00000-0  38508-5 0  9992
2 40069  98.5394 329.2506 0004583 279.6483  80.4168 14.20665292273191
Epoch (UTC): 14 October 2019 19:54:41
Eccentricity: 0.0004583
inclination: 98.5394°
perigee height: 820 km
apogee height: 826 km
right ascension of ascending node: 329.2506°
argument of perigee: 279.6483°
revolutions per day: 14.20665292
mean anomaly at epoch: 80.4168°
orbit number at epoch: 27319

The dashed part of the orbit path shows where the satellite is in the earth's shadow,  

DLR